[[{"header":{"parameterUnit":"m.s-1","parameterCategory":1,"la1":30.2991,"la2":30.254,"lo1":-89.0895,"lo2":-89.0444,"dy":0.0017,"dx":0.0017,"nx":28,"ny":28,"refTime":"2025-02-24T03:00:00:Z","depth":0,"parameterNumber":2,"parameterNumberName":"U-component_of_WINDS"},"data":[0,0,0,0,0,0,0,0,0,0,0,0,0,0,0,0,0,0,0,0,0,0,0,0,0,0,0,0,0,0,0,0,0,0,0,0,0,0,0,0,0,0,0,0,0,0,0,0,0,0,0,0,0,0,0,0,0,0,-0.8609,-0.861,0,-0.8646,-0.8646,-0.8647,-0.8652,-0.8651,-0.8651,-0.8651,-0.8687,-0.8689,-0.869,0,0,0,0,0,0,0,0,0,0,0,0,0,-0.8542,-0.8543,-0.8609,-0.861,-0.861,-0.8646,-0.8646,-0.8647,-0.8652,-0.8651,-0.8651,-0.8651,-0.8687,-0.8689,-0.869,0,0,0,0,0,0,0,0,0,0,0,0,0,-0.8574,-0.8543,-0.8609,-0.8617,-0.8618,-0.8646,-0.8646,-0.8647,-0.8652,-0.8651,-0.8651,-0.865,-0.8687,-0.8688,-0.869,-0.8713,0,0,-0.8696,-0.8697,0,0,0,0,0,0,0,0,-0.8572,-0.8576,-0.8615,-0.8617,-0.8618,-0.8644,-0.8636,-0.8669,-0.8652,-0.8639,-0.8651,-0.865,-0.8673,-0.8676,-0.8684,-0.8714,-0.8716,-0.8696,-0.8698,-0.8698,-0.8699,0,0,0,0,0,0,0,-0.857,-0.8575,-0.8624,-0.8616,-0.8617,-0.8618,-0.8622,-0.8642,-0.8659,-0.864,-0.8641,-0.8645,-0.8674,-0.8682,-0.8685,-0.8717,-0.8696,-0.8698,-0.8699,-0.87,-0.8766,-0.8766,0,0,0,0,0,0,-0.8566,-0.8573,-0.8623,-0.8625,-0.8593,-0.862,-0.8624,-0.8636,-0.8658,-0.8661,-0.8645,-0.8645,-0.8679,-0.8683,-0.8686,-0.8714,-0.8698,-0.87,-0.8701,-0.8765,-0.8766,-0.8766,0,0,0,0,0,0,-0.8565,-0.8571,-0.8621,-0.8599,-0.8606,-0.8621,-0.8635,-0.8637,-0.8646,-0.8662,-0.8665,-0.8651,-0.8679,-0.8684,-0.8706,-0.8715,-0.8701,-0.8703,-0.8764,-0.8765,-0.8766,-0.8769,0,0,0,0,0,0,-0.8563,-0.857,-0.858,-0.8599,-0.8607,-0.8641,-0.8635,-0.8638,-0.8649,-0.8649,-0.8669,-0.8671,-0.8679,-0.8703,-0.8708,-0.8718,-0.8704,-0.8764,-0.8765,-0.8766,-0.8768,-0.877,-0.8771,0,0,0,0,0,-0.8561,-0.8579,-0.858,-0.8586,-0.8619,-0.8641,-0.8645,-0.8654,-0.865,-0.8659,-0.8669,-0.8671,-0.8713,-0.8705,-0.8711,-0.8721,-0.8763,-0.8764,-0.8766,-0.8767,-0.8769,-0.8771,0,0,0,0,0,0,-0.856,-0.8582,-0.8583,-0.8609,-0.8623,-0.8642,-0.8654,-0.8656,-0.8672,-0.8671,-0.8681,-0.8685,-0.8707,-0.8716,-0.8707,-0.8743,-0.8738,-0.874,-0.8737,-0.8739,-0.8741,-0.8739,-0.8706,0,0,0,0,0,-0.8563,-0.858,-0.8598,-0.8618,-0.8626,-0.8638,-0.8649,-0.8654,-0.8669,-0.8675,-0.8687,-0.8702,-0.8718,-0.8729,-0.8745,-0.8769,-0.8773,-0.8779,-0.878,-0.8781,-0.8784,-0.8796,-0.8799,-0.877,-0.877,-0.877,0,0,-0.857,-0.8583,-0.8593,-0.8619,-0.8631,-0.8647,-0.8644,-0.8662,-0.8674,-0.8678,-0.87,-0.8709,-0.8725,-0.8748,-0.8759,-0.8757,-0.8792,-0.8783,-0.8784,-0.8786,-0.8798,-0.8801,-0.8803,-0.8771,-0.8771,-0.8771,0,0,-0.859,-0.8602,-0.862,-0.8632,-0.8649,-0.8657,-0.8662,-0.868,-0.8686,-0.8708,-0.8711,-0.8725,-0.8753,-0.8765,-0.8775,-0.8797,-0.8799,-0.8801,-0.881,-0.8822,-0.8825,-0.8827,-0.8835,-0.8837,-0.8803,-0.8803,-0.8803,0,-0.8595,-0.8621,-0.8629,-0.8647,-0.8658,-0.8661,-0.868,-0.869,-0.8712,-0.8719,-0.8716,-0.8751,-0.8762,-0.8787,-0.8793,-0.88,-0.8805,-0.88,-0.8824,-0.8826,-0.8828,-0.8836,-0.8838,-0.8804,-0.8804,-0.8804,-0.8804,0,-0.8627,-0.8645,-0.8658,-0.8679,-0.869,-0.8708,-0.8718,-0.8729,-0.8732,-0.8741,-0.8762,-0.8775,-0.8794,-0.88,-0.8804,-0.8826,-0.8824,-0.8822,-0.8816,-0.8831,-0.8838,-0.8841,-0.8804,-0.8804,-0.8804,-0.8804,0,0,-0.8651,-0.8674,-0.8679,-0.8688,-0.8707,-0.872,-0.8737,-0.8756,-0.8765,-0.8779,-0.8793,-0.8816,-0.8814,-0.8825,-0.883,-0.884,-0.8857,-0.8837,-0.8837,-0.8841,-0.8881,-0.8883,-0.8886,-0.8857,-0.8858,-0.8858,-0.888,0,-0.8674,-0.8706,-0.8712,-0.8739,-0.8755,-0.8758,-0.8772,-0.8785,-0.8792,-0.8806,-0.8814,-0.8831,-0.8827,-0.8833,-0.8843,-0.8852,-0.8865,-0.8851,-0.8871,-0.8871,-0.8868,-0.889,-0.8893,-0.8913,-0.8883,-0.8883,-0.8884,0,-0.8705,-0.872,-0.8749,-0.8764,-0.8771,-0.8785,-0.8801,-0.8815,-0.8828,-0.8833,-0.8844,-0.8847,-0.8864,-0.8856,-0.888,-0.887,-0.8878,-0.8883,-0.8884,-0.8888,-0.8879,-0.8895,-0.892,-0.8923,-0.8888,-0.8888,-0.8888,0,-0.872,-0.8747,-0.8767,-0.8775,-0.8793,-0.8803,-0.8811,-0.8824,-0.8834,-0.8847,-0.8854,-0.8869,-0.8878,-0.889,-0.8896,-0.889,-0.8919,-0.8912,-0.8923,-0.8923,-0.8931,-0.893,-0.8958,-0.8934,-0.8934,-0.8934,-0.8934,0,-0.8746,-0.8763,-0.8774,-0.8787,-0.8806,-0.8813,-0.8832,-0.8839,-0.8851,-0.8864,-0.8866,-0.8879,-0.8887,-0.89,-0.8905,-0.8924,-0.8928,-0.8932,-0.8933,-0.8932,-0.8932,-0.8939,-0.8938,-0.8935,-0.8935,-0.8935,-0.8934,0,-0.8767,-0.8774,-0.8797,-0.8812,-0.8816,-0.8829,-0.8842,-0.8854,-0.886,-0.8877,-0.8882,-0.8892,-0.8908,-0.8915,-0.8935,-0.8938,-0.8959,-0.8959,-0.8955,-0.8956,-0.8967,-0.8966,-0.9,-0.9005,-0.8977,-0.8978,-0.8978,0,-0.8783,-0.8797,-0.8813,-0.8822,-0.883,-0.8845,-0.8855,-0.8861,-0.8871,-0.8886,-0.8896,-0.8912,-0.8925,-0.895,-0.8959,-0.8974,-0.8975,-0.8986,-0.8977,-0.8975,-0.8975,-0.8975,-0.8976,-0.8988,-0.8988,-0.8988,-0.8988,0,-0.8812,-0.8814,-0.8829,-0.8844,-0.8856,-0.8868,-0.888,-0.8887,-0.8895,-0.8906,-0.8922,-0.8932,-0.8952,-0.8967,-0.8982,-0.899,-0.899,-0.8991,-0.8994,-0.8994,-0.8991,-0.8993,-0.896,-0.899,-0.899,-0.899,-0.899,-0.899,-0.8831,-0.8843,-0.8856,-0.8872,-0.8881,-0.8892,-0.8903,-0.8911,-0.8924,-0.8941,-0.8943,-0.896,-0.8972,-0.8992,-0.8999,-0.9012,-0.901,-0.9015,-0.9016,-0.9018,-0.9018,-0.8988,-0.9015,-0.9015,-0.9015,-0.9015,-0.9015,0,-0.8861,-0.8869,-0.8883,-0.8899,-0.8911,-0.8909,-0.8922,-0.8932,-0.8947,-0.8958,-0.897,-0.8988,-0.9003,-0.9012,-0.9026,-0.9035,-0.9035,-0.9039,-0.9039,-0.904,-0.902,-0.9016,-0.9038,-0.9038,-0.9038,-0.9038,-0.9038,-0.9038,-0.8878,-0.8897,-0.8901,-0.8925,-0.8933,-0.8949,-0.8957,-0.8966,-0.8975,-0.8995,-0.9007,-0.9012,-0.9022,-0.9037,-0.905,-0.9052,-0.9057,-0.9061,-0.9063,-0.9044,-0.9042,-0.904,-0.9036,-0.9062,-0.9062,-0.9083,-0.9083,-0.9083]},{"header":{"parameterUnit":"m.s-1","parameterCategory":1,"la1":30.2991,"la2":30.254,"lo1":-89.0895,"lo2":-89.0444,"dy":0.0017,"dx":0.0017,"nx":28,"ny":28,"refTime":"2025-02-24T03:00:00:Z","depth":0,"parameterNumber":3,"parameterNumberName":"V-component_of_WINDS"},"data":[0,0,0,0,0,0,0,0,0,0,0,0,0,0,0,0,0,0,0,0,0,0,0,0,0,0,0,0,0,0,0,0,0,0,0,0,0,0,0,0,0,0,0,0,0,0,0,0,0,0,0,0,0,0,0,0,0,0,-3.8306,-3.8307,0,-3.837,-3.8371,-3.8372,-3.8317,-3.8314,-3.8312,-3.831,-3.8371,-3.8374,-3.8378,0,0,0,0,0,0,0,0,0,0,0,0,0,-3.813,-3.8133,-3.8306,-3.8307,-3.8308,-3.837,-3.8371,-3.8372,-3.8317,-3.8314,-3.8312,-3.8309,-3.837,-3.8374,-3.8378,0,0,0,0,0,0,0,0,0,0,0,0,0,-3.8201,-3.8135,-3.8306,-3.8288,-3.8287,-3.837,-3.8371,-3.8372,-3.8318,-3.8314,-3.8311,-3.8308,-3.8368,-3.8373,-3.8379,-3.8481,0,0,-3.8396,-3.8398,0,0,0,0,0,0,0,0,-3.8197,-3.8208,-3.829,-3.8289,-3.8288,-3.8332,-3.8331,-3.8409,-3.8319,-3.8306,-3.831,-3.8306,-3.836,-3.8366,-3.8386,-3.8484,-3.8487,-3.8397,-3.84,-3.8402,-3.8404,0,0,0,0,0,0,0,-3.8193,-3.8205,-3.8331,-3.8291,-3.829,-3.8275,-3.8281,-3.8346,-3.8351,-3.8307,-3.8303,-3.8312,-3.8359,-3.838,-3.8387,-3.8488,-3.8396,-3.8401,-3.8405,-3.8407,-3.8672,-3.8675,0,0,0,0,0,0,-3.819,-3.8201,-3.8329,-3.8333,-3.8234,-3.8281,-3.8288,-3.8321,-3.835,-3.8352,-3.8314,-3.8309,-3.8373,-3.838,-3.8389,-3.851,-3.8402,-3.8408,-3.8411,-3.8668,-3.8673,-3.8677,0,0,0,0,0,0,-3.8187,-3.8202,-3.8327,-3.8266,-3.8281,-3.8287,-3.8325,-3.8324,-3.8346,-3.8356,-3.8356,-3.8335,-3.837,-3.8381,-3.8459,-3.8511,-3.841,-3.8415,-3.8664,-3.867,-3.8675,-3.8754,0,0,0,0,0,0,-3.8182,-3.8201,-3.8242,-3.8268,-3.8284,-3.8398,-3.8329,-3.8328,-3.8356,-3.8349,-3.8376,-3.8377,-3.8368,-3.8451,-3.8464,-3.8517,-3.842,-3.8659,-3.8666,-3.8673,-3.8747,-3.8761,-3.8774,0,0,0,0,0,-3.8176,-3.8261,-3.8244,-3.826,-3.8335,-3.8401,-3.841,-3.84,-3.8361,-3.84,-3.8407,-3.8376,-3.8503,-3.8459,-3.8474,-3.8529,-3.8656,-3.8664,-3.8672,-3.874,-3.8759,-3.8774,0,0,0,0,0,0,-3.8239,-3.8264,-3.8246,-3.8342,-3.837,-3.8392,-3.8442,-3.842,-3.8458,-3.845,-3.8434,-3.844,-3.8523,-3.8533,-3.8484,-3.8629,-3.8573,-3.8585,-3.8619,-3.8637,-3.865,-3.8646,-3.8424,0,0,0,0,0,-3.8265,-3.8318,-3.8335,-3.8418,-3.8434,-3.8436,-3.8464,-3.8453,-3.8481,-3.8492,-3.8504,-3.8531,-3.8576,-3.8607,-3.865,-3.8747,-3.8752,-3.8793,-3.8806,-3.8817,-3.8828,-3.8879,-3.8897,-3.8704,-3.8704,-3.8704,0,0,-3.8317,-3.8337,-3.8372,-3.8432,-3.8452,-3.8506,-3.8446,-3.8505,-3.8544,-3.85,-3.8576,-3.8585,-3.8613,-3.8702,-3.8741,-3.8713,-3.8882,-3.8828,-3.8837,-3.8841,-3.889,-3.8908,-3.8924,-3.871,-3.8709,-3.8708,0,0,-3.8441,-3.8462,-3.8533,-3.8555,-3.8588,-3.8588,-3.8605,-3.863,-3.8635,-3.8711,-3.8679,-3.8724,-3.8803,-3.8825,-3.8846,-3.8976,-3.8949,-3.899,-3.9062,-3.9113,-3.9128,-3.9141,-3.9188,-3.9204,-3.9,-3.9001,-3.9001,0,-3.8502,-3.8584,-3.8572,-3.8634,-3.8661,-3.8625,-3.8696,-3.8717,-3.8761,-3.8779,-3.8748,-3.8846,-3.8863,-3.8955,-3.8987,-3.9005,-3.9023,-3.8988,-3.9127,-3.914,-3.9153,-3.9196,-3.9214,-3.9005,-3.9005,-3.9004,-3.9004,0,-3.8656,-3.8713,-3.8766,-3.8812,-3.8844,-3.891,-3.8907,-3.8941,-3.8927,-3.893,-3.9006,-3.9025,-3.907,-3.9091,-3.9078,-3.9182,-3.9163,-3.913,-3.9073,-3.9176,-3.9217,-3.9234,-3.9012,-3.9011,-3.9009,-3.9008,0,0,-3.8823,-3.8861,-3.8881,-3.89,-3.8933,-3.8976,-3.9039,-3.9085,-3.9114,-3.9145,-3.9197,-3.9264,-3.9233,-3.9257,-3.9246,-3.929,-3.9391,-3.9251,-3.9251,-3.9276,-3.9506,-3.9531,-3.9551,-3.9373,-3.9377,-3.9379,-3.9503,0,-3.8948,-3.9061,-3.9052,-3.9157,-3.9209,-3.9175,-3.923,-3.9255,-3.9259,-3.9301,-3.9305,-3.9353,-3.9309,-3.9323,-3.9365,-3.937,-3.9437,-3.9361,-3.942,-3.9423,-3.9415,-3.9573,-3.96,-3.9717,-3.9519,-3.9522,-3.9524,0,-3.9109,-3.9148,-3.9259,-3.9283,-3.9305,-3.9355,-3.9395,-3.9437,-3.9464,-3.9463,-3.949,-3.9471,-3.9532,-3.9474,-3.9558,-3.9506,-3.9529,-3.9535,-3.9539,-3.9545,-3.948,-3.9582,-3.9754,-3.9771,-3.9549,-3.9547,-3.9545,0,-3.9219,-3.9299,-3.9376,-3.9393,-3.9424,-3.9459,-3.9473,-3.9496,-3.9524,-3.9559,-3.9577,-3.9618,-3.964,-3.9671,-3.9663,-3.9621,-3.9748,-3.9689,-3.9749,-3.9749,-3.9778,-3.9776,-3.9956,-3.9792,-3.9792,-3.9792,-3.9791,0,-3.936,-3.943,-3.9426,-3.9473,-3.9549,-3.9537,-3.9612,-3.9621,-3.9641,-3.9688,-3.966,-3.9704,-3.969,-3.9733,-3.9726,-3.9796,-3.9807,-3.9807,-3.9804,-3.981,-3.981,-3.9825,-3.9817,-3.9796,-3.9795,-3.9795,-3.9794,0,-3.9497,-3.9497,-3.9578,-3.96,-3.9607,-3.9663,-3.968,-3.9724,-3.9725,-3.9785,-3.9798,-3.98,-3.9849,-3.9843,-3.9897,-3.9893,-3.998,-3.9967,-3.9972,-3.9969,-4.0029,-4.0024,-4.0225,-4.025,-4.007,-4.0072,-4.0074,0,-3.9587,-3.964,-3.9668,-3.9698,-3.9715,-3.9764,-3.9793,-3.9781,-3.9812,-3.9846,-3.9885,-3.9932,-3.9969,-4.0048,-4.0053,-4.0094,-4.0082,-4.015,-4.0088,-4.0092,-4.0083,-4.008,-4.0085,-4.0162,-4.0164,-4.0166,-4.0167,0,-3.9747,-3.9744,-3.9788,-3.9832,-3.9867,-3.99,-3.993,-3.9956,-3.9947,-3.9983,-4.0033,-4.0062,-4.0118,-4.0164,-4.0203,-4.0214,-4.0189,-4.0186,-4.0202,-4.0209,-4.0209,-4.021,-4.0005,-4.0182,-4.018,-4.0179,-4.0179,-4.0178,-3.9863,-3.9908,-3.9935,-3.9984,-4.0006,-4.0035,-4.0077,-4.0084,-4.0126,-4.0172,-4.0162,-4.0219,-4.0242,-4.0292,-4.0307,-4.035,-4.0325,-4.0348,-4.0354,-4.036,-4.0368,-4.0202,-4.0357,-4.0356,-4.0356,-4.0356,-4.0355,0,-4.0022,-4.0037,-4.0083,-4.0126,-4.0165,-4.0139,-4.017,-4.0203,-4.0255,-4.0279,-4.0316,-4.0374,-4.0418,-4.0426,-4.0468,-4.0501,-4.049,-4.0512,-4.051,-4.0513,-4.0387,-4.037,-4.052,-4.052,-4.052,-4.052,-4.052,-4.052,-4.0109,-4.0184,-4.0185,-4.0269,-4.0283,-4.0341,-4.0361,-4.0386,-4.0406,-4.0472,-4.051,-4.0515,-4.0533,-4.0576,-4.0615,-4.0616,-4.0632,-4.0659,-4.0656,-4.0538,-4.0522,-4.0506,-4.0489,-4.0663,-4.0663,-4.0777,-4.0778,-4.0779]}]]